Wind_Speed
19 17 15 12 9 7 5 3 2 2 5 7 7 8 9 11 13 14 14 14 14 14 13 14 14 15 15 14 13 12 11 10 10 8 7 7 6 6 5 4 3 2 2 1
21 18 15 13 11 9 7 5 4 3 6 7 8 8 7 9 11 12 13 13 13 13 13 13 13 14 14 14 14 13 12 11 10 9 7 6 6 5 5 4 3 2 1 0
22 18 17 16 14 13 10 8 5 5 6 7 7 7 7 7 9 10 11 11 12 12 13 13 13 13 14 14 13 12 12 11 11 10 8 7 6 5 4 4 3 2 1 1
23 21 20 19 17 15 13 11 8 7 8 8 8 7 5 6 7 8 10 10 10 11 12 13 13 13 13 13 13 12 12 12 11 10 9 8 6 5 5 4 3 2 2 2
25 23 22 21 18 16 14 12 11 9 8 8 7 7 5 5 6 7 9 9 9 10 11 11 12 12 12 12 12 12 12 12 11 10 10 9 7 6 5 5 4 3 3 3
25 24 23 21 20 18 17 15 14 12 11 10 8 8 6 6 6 7 8 8 9 10 10 10 11 12 12 12 12 12 12 12 11 10 9 10 8 6 5 4 4 4 4 4
28 26 25 23 21 20 19 17 16 15 14 10 9 10 8 7 6 6 7 8 8 9 9 9 10 11 11 11 11 12 12 12 12 11 10 9 9 7 6 5 5 5 5 5
30 28 26 24 23 21 19 18 17 16 15 11 9 11 9 8 8 7 6 7 8 8 9 8 9 10 10 10 11 11 12 12 12 11 10 10 9 8 7 5 5 5 5 5
29 28 26 25 24 23 21 19 18 17 16 13 11 11 9 7 6 7 7 8 8 8 9 9 8 9 9 9 10 11 11 12 11 12 11 10 10 9 8 7 6 6 6 6
29 29 28 27 26 25 23 20 21 20 18 16 14 11 10 8 8 7 8 9 9 8 8 8 8 8 7 8 9 10 11 11 12 12 11 11 12 11 9 8 7 7 7 7
31 30 29 29 28 26 25 23 23 21 20 18 16 14 11 11 9 8 9 9 11 9 9 9 9 9 8 8 9 10 10 11 12 12 12 12 12 12 11 10 9 8 7 7
31 31 31 30 28 26 26 24 23 23 23 21 19 16 14 13 11 11 10 10 11 10 10 10 10 10 9 9 9 10 11 11 11 12 12 12 13 13 12 11 10 9 9 9
33 33 32 31 30 29 28 27 25 25 25 24 23 19 16 15 14 13 12 12 11 12 12 11 11 11 10 10 10 11 12 12 11 11 12 13 13 13 14 13 12 11 10 9
35 35 34 33 31 31 31 29 27 26 26 26 25 21 18 17 16 15 14 14 14 14 14 13 12 12 11 11 12 11 12 13 12 12 13 13 13 14 14 14 13 12 11 11
36 36 35 34 32 31 31 31 30 29 27 27 25 22 21 19 17 17 16 16 16 15 15 14 13 13 13 12 12 12 13 13 12 12 14 14 14 14 14 14 13 12 11 11
38 37 36 35 34 33 32 31 31 31 29 29 27 24 22 21 21 19 18 18 17 16 16 15 14 13 14 12 13 13 13 13 13 14 14 15 15 15 15 15 14 13 12 11
39 39 38 36 35 34 34 30 30 31 31 30 30 28 25 23 22 21 20 19 18 18 17 17 16 15 14 14 14 14 14 14 14 15 15 16 15 16 15 16 16 14 13 12
39 38 39 38 37 37 33 32 32 32 31 31 30 29 28 27 25 24 23 22 22 20 20 19 18 18 16 15 15 15 15 15 15 15 16 16 17 17 16 16 15 14 13 13
39 40 40 39 40 38 35 33 34 34 33 32 31 29 29 29 28 27 26 25 25 24 23 22 21 20 18 16 16 16 16 15 15 16 17 17 17 17 17 16 15 14 13 14
38 39 40 41 41 41 37 35 34 36 36 34 33 32 31 30 29 28 28 28 28 27 26 24 23 22 21 18 18 18 18 17 17 17 17 17 18 18 17 16 15 15 15 15
38 38 39 41 42 42 38 36 35 36 36 34 33 33 33 32 31 30 29 29 29 27 26 25 25 24 23 21 21 19 19 19 19 19 18 17 18 17 17 17 16 16 16 16
37 38 39 40 42 42 38 36 36 35 34 33 33 33 34 34 33 32 31 30 29 28 26 25 25 25 24 23 20 19 20 20 20 20 19 18 18 18 18 17 17 17 16 17
38 38 38 39 39 39 38 37 35 35 35 34 34 34 33 34 35 35 34 31 30 30 28 27 26 26 25 23 21 21 21 21 21 21 20 19 19 19 18 18 18 18 18 18
36 37 37 38 38 37 37 37 36 35 36 35 34 33 34 34 34 35 35 33 32 31 30 30 29 28 25 23 23 22 22 22 21 21 21 20 20 19 19 19 19 20 20 19
37 37 37 38 37 37 36 36 36 36 35 35 34 34 35 35 34 35 35 34 33 32 31 30 29 27 26 25 24 24 23 23 22 22 22 21 21 21 21 21 21 22 21 21
37 37 37 37 37 37 36 36 36 36 36 35 36 36 35 35 34 34 33 32 32 33 32 30 29 28 27 26 25 24 24 24 24 24 23 23 22 23 23 23 22 22 23 23
Wind_Direction
194 188 182 179 179 172 162 162 196 268 328 332 339 2 20 28 35 37 36 33 33 34 34 36 35 35 34 33 33 34 33 31 30 29 28 28 29 28 27 24 27 34 57 95
200 194 185 186 189 185 190 192 201 253 305 318 328 340 2 17 30 33 33 30 28 29 29 30 31 30 30 29 30 31 31 31 27 23 22 22 24 24 21 21 18 11 356 308
207 196 191 195 195 194 203 202 213 242 273 288 312 328 351 21 24 26 29 25 22 25 27 27 28 26 25 24 26 26 25 24 23 22 16 13 13 10 7 5 4 360 348 319
207 202 200 201 203 205 208 207 216 230 259 282 291 303 323 354 8 16 20 20 19 20 22 24 26 23 22 22 22 22 21 19 19 19 16 10 5 360 355 345 335 323 318 304
208 206 207 208 209 211 213 211 215 224 250 271 279 291 310 326 351 358 5 14 17 14 14 17 20 19 17 16 17 21 20 19 17 19 19 12 4 357 347 338 334 318 307 299
210 210 211 212 212 213 212 213 217 223 236 251 271 277 293 325 340 352 0 4 3 3 1 5 10 12 12 11 13 18 19 17 15 16 18 17 11 3 352 336 331 324 311 304
212 212 212 212 212 213 213 217 216 223 234 245 258 261 274 297 311 333 351 356 354 350 354 358 1 4 7 9 10 14 15 14 13 14 15 13 10 2 352 346 337 330 321 312
216 215 214 214 213 213 217 223 226 231 238 244 255 260 267 282 288 313 332 342 344 339 343 348 351 356 0 5 6 8 10 9 10 13 11 9 4 2 359 349 336 329 322 320
218 218 216 216 212 212 214 223 229 235 239 243 250 256 263 268 291 302 313 323 327 328 326 333 341 347 353 358 0 3 4 3 7 10 10 9 4 1 359 351 336 324 317 313
217 218 215 214 214 215 217 221 224 229 237 243 247 253 268 278 287 302 303 310 314 320 325 326 333 339 348 351 354 357 0 2 1 2 6 6 5 2 355 347 337 326 315 307
217 218 214 214 214 214 216 220 227 231 237 243 245 253 262 269 274 284 296 304 316 318 325 326 332 333 339 343 343 345 347 351 353 356 359 1 2 3 359 349 337 328 319 313
218 218 216 216 217 218 220 222 227 231 236 241 245 247 253 262 273 280 284 296 310 311 318 321 320 322 327 333 335 336 338 341 345 350 353 355 356 355 353 350 346 339 330 327
217 218 217 216 217 219 220 222 227 232 236 241 244 248 251 261 268 275 280 288 297 302 310 312 312 313 313 321 325 325 330 334 336 342 347 349 350 349 348 345 342 341 337 336
220 221 221 220 219 222 223 222 225 228 233 237 240 245 249 256 266 271 277 283 291 297 304 307 308 310 306 312 316 318 323 330 330 331 337 340 341 342 345 348 345 340 335 333
221 222 223 223 222 224 227 226 226 228 231 237 239 242 246 252 260 265 272 277 283 288 294 298 300 304 305 305 306 308 316 323 327 327 331 332 333 334 336 339 338 336 330 326
222 224 224 225 224 225 226 227 227 229 232 236 239 239 241 248 254 260 266 271 277 283 286 292 293 295 299 298 299 301 309 317 320 321 323 326 327 329 328 329 329 327 328 329
223 225 225 224 225 226 225 226 227 229 233 237 239 240 238 243 250 257 264 266 275 279 282 289 288 289 292 295 296 294 300 307 313 317 320 323 326 327 326 327 326 327 323 323
225 226 226 225 224 225 226 225 227 229 232 236 240 240 238 241 247 254 259 263 269 275 280 285 285 285 285 286 288 289 293 300 306 312 316 319 323 325 323 322 322 322 322 322
226 226 226 225 226 227 225 225 228 230 231 234 238 238 237 240 245 249 255 261 266 272 277 281 282 284 280 279 282 283 287 292 299 306 310 312 316 319 321 319 317 316 317 318
226 226 227 227 228 229 228 226 229 231 234 235 237 237 238 240 244 249 254 258 262 268 273 276 277 279 279 275 277 280 284 288 295 301 306 308 312 314 315 314 314 313 313 314
226 226 227 228 230 231 231 229 229 232 234 235 237 237 237 239 244 249 252 256 261 263 269 274 276 277 277 275 274 276 281 284 290 296 300 304 307 310 311 311 311 310 309 313
228 228 228 230 231 233 231 230 230 233 235 236 237 239 240 241 244 248 250 253 258 263 269 274 274 273 275 277 274 273 275 279 285 289 292 296 301 305 306 306 307 310 312 312
230 229 230 232 234 234 232 231 232 232 233 235 236 238 240 241 244 248 252 254 258 262 266 269 271 271 273 273 273 271 273 277 282 286 288 291 298 302 304 305 306 308 310 311
229 230 231 232 233 233 233 231 232 232 232 234 236 238 241 242 244 248 252 256 258 260 265 268 269 270 270 271 271 272 274 275 279 284 286 291 295 298 299 301 304 305 307 308
229 231 232 234 233 233 233 231 231 232 233 233 235 239 240 241 244 248 251 254 257 258 261 263 263 265 267 270 270 271 274 275 278 283 286 288 291 294 296 298 301 302 303 304
230 232 234 234 234 235 234 231 230 232 235 235 236 238 238 239 241 245 249 252 254 257 261 262 262 262 263 264 266 268 272 274 279 281 283 286 289 291 293 295 296 298 299 300
Height
5933 5937 5938 5940 5941 5942 5941 5942 5942 5943 5943 5944 5944 5943 5943 5941 5939 5938 5937 5935 5934 5932 5930 5928 5925 5923 5921 5919 5917 5916 5914 5912 5911 5909 5908 5907 5906 5905 5904 5903 5903 5902 5901 5901
5932 5934 5937 5938 5939 5940 5941 5941 5942 5943 5943 5943 5943 5943 5942 5941 5940 5939 5938 5937 5935 5933 5932 5929 5927 5924 5923 5920 5918 5917 5915 5913 5912 5910 5909 5907 5906 5905 5904 5903 5902 5902 5901 5901
5929 5933 5934 5936 5937 5938 5939 5941 5941 5942 5942 5942 5943 5943 5942 5942 5941 5940 5939 5938 5936 5934 5933 5931 5928 5926 5924 5921 5919 5918 5916 5914 5912 5910 5909 5907 5906 5905 5904 5903 5902 5902 5901 5900
5925 5929 5931 5933 5935 5937 5938 5939 5940 5941 5941 5941 5942 5942 5942 5941 5940 5939 5939 5938 5937 5935 5933 5931 5929 5927 5925 5923 5921 5918 5916 5914 5912 5910 5909 5907 5906 5905 5904 5903 5902 5901 5900 5900
5921 5925 5927 5930 5933 5934 5936 5938 5939 5939 5940 5940 5941 5941 5941 5940 5939 5939 5939 5938 5937 5936 5934 5932 5930 5928 5926 5924 5921 5919 5917 5915 5913 5911 5909 5907 5906 5904 5903 5902 5901 5900 5900 5899
5918 5921 5924 5927 5930 5932 5934 5936 5937 5937 5938 5939 5940 5939 5939 5938 5938 5938 5938 5937 5936 5936 5934 5932 5930 5928 5926 5924 5922 5919 5917 5915 5913 5911 5909 5907 5905 5904 5903 5901 5900 5899 5899 5898
5913 5916 5920 5923 5926 5929 5931 5933 5934 5935 5936 5937 5937 5936 5937 5937 5937 5937 5937 5936 5936 5935 5933 5932 5930 5928 5926 5924 5922 5920 5917 5915 5913 5911 5909 5907 5905 5903 5901 5900 5899 5898 5897 5896
5908 5912 5916 5919 5922 5925 5927 5929 5931 5932 5933 5934 5934 5934 5935 5935 5934 5935 5935 5935 5935 5934 5933 5932 5930 5928 5926 5924 5922 5920 5917 5915 5913 5911 5909 5907 5905 5902 5900 5899 5898 5897 5896 5894
5903 5908 5912 5915 5918 5921 5923 5925 5928 5929 5930 5931 5932 5932 5932 5932 5932 5932 5933 5933 5933 5933 5932 5931 5929 5927 5925 5923 5922 5919 5917 5915 5913 5911 5909 5906 5904 5901 5899 5897 5896 5895 5894 5893
5897 5902 5907 5910 5913 5916 5919 5921 5924 5925 5926 5927 5929 5929 5930 5930 5930 5930 5931 5931 5931 5931 5930 5929 5927 5926 5925 5923 5922 5920 5918 5915 5914 5911 5909 5906 5904 5901 5899 5896 5895 5893 5892 5890
5892 5896 5901 5904 5907 5911 5914 5917 5919 5921 5923 5924 5925 5928 5927 5927 5927 5928 5929 5929 5929 5928 5928 5927 5926 5925 5924 5923 5921 5920 5918 5915 5913 5911 5908 5905 5903 5901 5898 5896 5894 5892 5890 5888
5885 5890 5894 5899 5903 5906 5909 5912 5914 5917 5919 5920 5921 5925 5924 5924 5925 5924 5925 5927 5927 5927 5927 5926 5925 5924 5923 5922 5920 5919 5917 5915 5912 5909 5907 5905 5902 5900 5897 5895 5893 5891 5889 5887
5879 5883 5888 5893 5899 5901 5903 5906 5909 5912 5914 5915 5917 5921 5920 5920 5921 5922 5922 5923 5924 5925 5925 5924 5923 5922 5921 5920 5919 5917 5915 5913 5911 5908 5906 5904 5901 5899 5896 5893 5891 5889 5887 5886
5873 5877 5882 5887 5891 5895 5897 5900 5903 5906 5908 5910 5912 5914 5915 5916 5917 5918 5919 5919 5920 5921 5922 5921 5921 5920 5918 5917 5917 5915 5913 5911 5909 5907 5904 5902 5900 5897 5895 5892 5890 5888 5886 5884
5867 5871 5876 5881 5885 5888 5892 5895 5898 5900 5902 5905 5907 5909 5911 5912 5913 5914 5915 5916 5917 5918 5918 5918 5918 5917 5916 5915 5914 5912 5911 5909 5907 5905 5902 5900 5898 5895 5893 5890 5888 5886 5884 5882
5860 5865 5869 5874 5878 5881 5885 5888 5892 5894 5896 5899 5901 5904 5906 5908 5909 5910 5911 5912 5913 5914 5914 5914 5914 5914 5913 5912 5911 5909 5908 5906 5904 5902 5900 5897 5895 5893 5890 5888 5885 5883 5881 5879
5853 5858 5863 5867 5871 5874 5878 5883 5885 5888 5890 5893 5895 5899 5901 5902 5904 5906 5907 5908 5909 5910 5910 5911 5910 5910 5909 5908 5908 5906 5905 5903 5901 5900 5897 5895 5892 5890 5887 5885 5882 5880 5878 5876
5846 5850 5855 5859 5864 5867 5874 5877 5878 5881 5884 5887 5889 5892 5895 5897 5899 5901 5903 5904 5905 5906 5906 5906 5906 5905 5905 5905 5904 5903 5901 5900 5898 5896 5895 5892 5889 5887 5884 5882 5880 5878 5876 5874
5839 5843 5847 5851 5855 5859 5866 5869 5872 5875 5877 5881 5883 5885 5888 5891 5893 5895 5897 5899 5900 5900 5901 5901 5901 5900 5900 5900 5899 5898 5897 5895 5894 5893 5891 5889 5886 5884 5881 5879 5877 5875 5873 5871
5830 5835 5839 5843 5847 5851 5858 5862 5865 5868 5870 5874 5876 5879 5882 5884 5886 5889 5891 5893 5894 5895 5895 5896 5895 5895 5893 5893 5893 5893 5892 5891 5890 5888 5887 5885 5883 5880 5878 5875 5873 5871 5869 5867
5822 5826 5830 5834 5838 5843 5849 5854 5858 5861 5863 5867 5870 5872 5875 5878 5881 5884 5885 5886 5887 5888 5889 5890 5889 5889 5887 5887 5886 5887 5887 5886 5885 5883 5882 5880 5878 5876 5874 5871 5870 5868 5866 5864
5813 5818 5822 5826 5830 5836 5841 5845 5849 5853 5856 5859 5863 5866 5868 5871 5874 5876 5877 5879 5881 5882 5883 5883 5883 5883 5881 5880 5879 5881 5881 5880 5879 5878 5877 5875 5874 5872 5870 5867 5866 5864 5862 5860
5805 5810 5814 5819 5824 5828 5833 5837 5841 5845 5849 5852 5855 5858 5860 5863 5866 5868 5870 5872 5874 5875 5876 5876 5876 5876 5875 5875 5875 5875 5875 5874 5873 5872 5871 5870 5869 5867 5865 5863 5861 5859 5857 5856
5797 5802 5806 5811 5815 5819 5825 5829 5834 5837 5841 5845 5848 5851 5853 5856 5858 5860 5862 5864 5866 5867 5868 5869 5869 5869 5868 5868 5869 5869 5868 5868 5867 5866 5865 5864 5863 5862 5860 5858 5857 5855 5853 5851
5790 5794 5798 5802 5807 5811 5816 5821 5825 5829 5832 5837 5840 5843 5845 5848 5850 5853 5855 5856 5858 5859 5860 5860 5861 5862 5862 5862 5862 5862 5862 5861 5861 5860 5859 5858 5857 5856 5855 5853 5851 5849 5847 5845
5782 5787 5791 5794 5799 5803 5808 5812 5816 5820 5824 5827 5831 5833 5835 5838 5841 5844 5847 5848 5849 5850 5852 5853 5853 5854 5854 5855 5855 5855 5855 5855 5855 5854 5853 5852 5851 5850 5849 5847 5846 5844 5842 5840